sat.trackr.live / text

‹ back to catalog

STARLINK-37155

NORAD 68314 · 2026-057W

PAYLOAD ACTIVE UNKNOWN

§ Identity

Operator
Country
US
Launch date
2026-03-20
Launch site
AFWTR
Launch vehicle
Mass (kg)
RCS (m²)

Purposes: comms

External: N2YO · Heavens-Above · Gunter

§ Orbital elements

Epoch: 2026-09-19T07:45:50.691168Z

Period
93.91 min
Inclination
97.2851°
Eccentricity
0.0000477
Mean motion
15.33446372 rev/d
Perigee alt
465.2 km
Apogee alt
465.9 km
Semi-major
6,843.7 km
B*
6.1177e-4
RAAN
27.7467°
Arg perigee
83.1995°
Mean anomaly
276.9303°
Rev number
2,833

§ Raw data

STARLINK-371551 68314U 26057W   26262.32350337  .00019727  00000+0  61177-3 0  99962 68314  97.2851  27.7467 0000477  83.1995 276.9303 15.33446372 28336

JSON: /api/v1/satellites/68314 · /tle

For live sub-satellite position, see the globe view (requires WebGL).

§ Visibility from observer

Set your observer location to see the next 7 days of passes ≥ 10°. The values pass through the URL so the page stays shareable.

No JS? Fill the form by hand. The geolocation button needs JavaScript.